Regional Weather Roundup
Issued by NWS

Home | Current Version | Previous Version | Text Only | Print | Product List | Glossary Off
Versions: 1 2 3 4 5 6 7 8 9 10 11 12 13 14 15 16 17 18 19 20 21 22 23 24 25 26 27 28 29 30 31 32 33 34 35 36 37 38 39 40 41 42 43 44 45 46 47 48 49 50

993
ASUS44 KJAN 310210
RWRMS

MISSISSIPPI HOURLY WEATHER ROUNDUP
NATIONAL WEATHER SERVICE JACKSON MS
900 PM CDT WED JUL 30 2014

NOTE: "FAIR: INDICATES FEW OR NO CLOUDS BELOW 12,000 FEET WITH NO
SIGNIFICANT WEATHER AND/OR OBSTRUCTIONS TO VISIBILITY.

MSZ001>002-007>008-010>013-018>021-025>028-034>036-310300-
NORTHWEST MISSISSIPPI

CITY           SKY/WX    TMP DP  RH WIND       PRES   REMARKS
CLARKSDALE     CLOUDY    75  68  78 CALM      30.06S
CLEVELAND      FAIR      74  70  86 CALM      30.05R
GREENWOOD      CLOUDY    73  67  81 E3        30.05F
GREENVILLE     LGT RAIN  74  68  81 W6        30.05S
GRENADA        FAIR      70  64  83 CALM      30.06S
OLIVE BRANCH   PTCLDY    73  63  68 CALM      30.07S
OXFORD         FAIR      72  66  83 CALM      30.08S
TUNICA         CLOUDY    73  68  83 CALM      30.06F
$$

MSZ003>006-009-014>017-022>024-029>033-037>039-310300-
NORTHEAST MISSISSIPPI

CITY           SKY/WX    TMP DP  RH WIND       PRES   REMARKS
BELMONT        FAIR      71  63  78 CALM      30.07S
COLUMBUS AFB   CLOUDY    72  65  77 N1        30.05F
CORINTH        FAIR      72  64  78 CALM      30.07S
GOLDN TRIANGLE CLOUDY    72  61  68 MISG      30.06S
STARKVILLE     FAIR      70  63  78 CALM      30.06S
TUPELO         CLOUDY    74  63  68 CALM      30.06S
$$

MSZ040-058-310300-
CENTRAL MISSISSIPPI

CITY           SKY/WX    TMP DP  RH WIND       PRES   REMARKS
JACKSON INTL   MOCLDY    74  62  66 NE3       30.04F
JACKSON HAWKNS PTCLDY    76  60  57 CALM      30.05F
MERIDIAN KEY   PTCLDY    70  58  65 NW5       30.04S
MERIDIAN NAS   MOCLDY    74  59  59 CALM      30.05S
RAYMOND        FAIR      73  68  83 CALM      30.05R
VICKSBURG      CLOUDY    77  64  64 NE7       30.04S
$$

MSZ059>079-310300-
SOUTH MISSISSIPPI

CITY           SKY/WX    TMP DP  RH WIND       PRES   REMARKS
BROOKHAVEN     FAIR      70  66  88 CALM      30.06S
COLUMBIA       FAIR      70  64  83 CALM      30.02S
HATTIESBURG    CLEAR     73  62  68 CALM      30.04R
MCCOMB         CLEAR     76  60  57 CALM      30.04R
NATCHEZ        PTCLDY    73  63  68 NE3       30.05R
PINE BELT      CLEAR     72  61  68 CALM      30.05R
$$

MSZ080>082-310300-
COASTAL MISSISSIPPI

CITY           SKY/WX    TMP DP  RH WIND       PRES   REMARKS
BAY ST LOUIS   CLEAR    N/A N/A N/A CALM      30.01S
BILOXI         CLEAR     78  61  55 NE6       30.02R
PASCAGOULA     CLEAR     72  65  78 CALM      30.02R
GULFPORT       CLEAR     82  58  43 N5        30.01R
$$



USA.gov is the U.S. government's official web portal to all federal, state and local government web resources and services.